Find Yunhai-2 02 xing

NORAD ID: 43910 Int'l Des: 2018-112 Owner: CASC Country: CN operational
LEOCIRCULAR

Live Position

Loading 3D Globe...

About Yunhai-2 02 xing

Description loading...

Upcoming Passes

Passes for default location (London). Set your location on the main map for personalized predictions.

Altitude History

Loading altitude history...

Two-Line Element Set

1 43910U 18112B 26106.72413910 -.00000067 00000-0 37095-4 0 9994
2 43910 50.0129 8.7440 0004944 8.2802 351.8194 14.28989010381454
Epoch: Apr 16, 2026 • Age: 4 hours

Current Status

Altitude 794.4 km
Velocity 7.46 km/s
Sub-Earth Point 34.27°N, 116.59°W
Launch Date Dec 29, 2018
Age 7.2 years
Type other

Technical Details

Classification Payload
Mass 100.00 kg
Dry Mass 100.00 kg
Total Mass 100.00 kg
Length 0.50 m
Diameter 0.20 m
Span 1.00 m
Shape Box + 2 pan
Manufacturer DFHS
Bus Type YH-2
Phase Status In Orbit
Owner/State CASC/CN

Most Searched